Pashkovsky Airport

Airport
ICAO code: 
URKK
Summary
ICAO Region: 
EUR
Territory: 
Location: 
Krasnodar Krai,
Coordinates: 
Aerial View: 
45° 2' 5" N, 39° 10' 14" E
Metar
Observation
URKK 241730Z 00000MPS 9999 BKN028 00/M01 Q1021 R23L/290054 NOSIG RMK QFE762
Station
Krasnodar
Date/Time
2022-01-24 17:30:00
Wind direction
Lowest cloud amount
broken clouds
Temperature
0°C
Dew point
-1°C
Humidity
92%
QNH
1021 hPa
Weather condition
n/a

Description

Also known as Pashkovsky Airport, this airport serves the souther Russian city of Krasnodar.

Climatology

Humid “subtropical” climate (Köppen climate classification Cfa) - characterized by hot, humid summers and cool winters. Significant amounts of precipitation occur in all seasons in most areas.

Runways

Designator Length Width Surface Rops
05L/23R 2200 49 ASP Yes/Yes
05R/23L 2998 44 CON Yes/Yes
Airport map: 
Aerial View: 

SKYbrary Partners:

Safety knowledge contributed by: